Regional Weather Roundup
Issued by NWS

Home | Current Version | Previous Version | Text Only | Print | Product List | Glossary Off
Versions: 1 2 3 4 5 6 7 8 9 10 11 12 13 14 15 16 17 18 19 20 21 22 23 24 25 26 27 28 29 30 31 32 33 34 35 36 37 38 39 40 41 42 43 44 45 46 47 48 49 50

196
ASUS43 KDTX 242101
RWRMI
MICHIGAN HOURLY REGIONAL WEATHER ROUNDUP
NATIONAL WEATHER SERVICE DETROIT/PONTIAC MI
400 PM EST FRI FEB 24 2017

NOTE: "FAIR" INDICATES FEW OR NO CLOUDS BELOW 12,000 FEET WITH NO
SIGNIFICANT WEATHER AND/OR OBSTRUCTION TO VISIBILITY.

MIZ047>049-052>055-059>063-066>070-074>076-081>083-242200-
SOUTHEAST LOWER MICHIGAN

CITY           SKY/WX    TMP DP  RH WIND       PRES   REMARKS
ADRIAN         CLOUDY    64  56  75 W6        29.46R
ALMA           LGT RAIN  39  38  98 NE9       29.49S WCI  33
ANN ARBOR      CLOUDY    56  53  90 S5        29.49R
BAD AXE        FOG       40  40 100 E6        29.55R VSB 1/2
CARO           LGT RAIN  44  43  99 E6        29.50F
DETROIT CITY   CLOUDY    67  55  65 NW9       29.55R
DETROIT        TSTM      58  54  86 VRB5G30   29.48F
FLINT          CLOUDY    50  48  93 E6        29.48F FOG
GROSSE ILE     CLOUDY    51  46  82 SE3       29.51S
HILLSDALE      CLOUDY    61  55  82 SW7       29.47F
HOWELL         CLOUDY    59  55  86 SE3       29.47F

CITY           SKY/WX    TMP DP  RH WIND       PRES   REMARKS
JACKSON        CLOUDY    65  54  67 S10       29.47R
LAMBERTVILLE   MOSUNNY   72  54  53 S10G17    29.48F
LANSING        LGT RAIN  48  45  89 E7        29.47S FOG
LAPEER         CLOUDY    52  51  95 E6        29.49F FOG
MASON          LGT RAIN  53  52  97 CALM      29.47R
MONROE         CLOUDY    70  57  62 S7        29.49F
MT. CLEMENS    TSTM      58  58  98 S22G28    29.54R
PONTIAC        LGT RAIN  64  55  72 S13G24    29.49S
PORT HOPE        N/A     37  37 100 E9        29.53F WCI  30
PORT HURON     CLOUDY    61  54  77 NE6       29.55R
TRI CITIES     TSTM      38  38 100 NE16      29.47F VSB 1/4 WCI  29
MIDLAND        RAIN      38  37  96 E14       29.49F VSB 3/4 WCI  29
TROY           RAIN      63  56  78 S15G30    29.52R
SAGINAW HB     LGT RAIN  41  37  87 NE8       29.48F VSB 3/4
$$
MIZ043>046-050>051-056>058-064>065-071>073-077>080-242200-
SOUTHWEST LOWER MICHIGAN

CITY           SKY/WX    TMP DP  RH WIND       PRES   REMARKS
BATTLE CREEK   CLOUDY    54  54 100 SE3       29.45F FOG
BENTON HARBOR  CLOUDY    53  51  93 W6        29.41S FOG
BIG RAPIDS     MIX PCPN  36  35  95 E7        29.45F WCI  30
COLDWATER      CLOUDY    64  56  75 MISG      29.46S
FREMONT        RAIN      38  38 100 E6        29.43S WCI  33
HOLLAND        TSTM      43  41  93 E6        29.42F FOG
GRAND RAPIDS   LGT RAIN  41  39  93 E12       29.43F FOG
IONIA          CLOUDY    39  39  99 E9        29.45F WCI  33
KALAMAZOO      CLOUDY    61  56  83 S10       29.44F
LUDINGTON      CLOUDY    35  35 100 N7        29.46S FOG     WCI  29
MARSHALL       CLOUDY    60  58  92 S3        29.45S
MOUNT PLEASANT LGT RAIN  38  37  98 E7        29.48F WCI  33
MUSKEGON       CLOUDY    40  39  97 E10       29.42F FOG     WCI  33
SOUTH HAVEN    LGT RAIN  54  54  99 SE3       29.41S
$$
MIZ016>042-242200-
NORTHERN LOWER MICHIGAN

CITY           SKY/WX    TMP DP  RH WIND       PRES   REMARKS
ALPENA         LGT RAIN  34  33  96 E14G25    29.59F FOG     WCI  25
BEAVER ISLAND  CLOUDY    30  28  94 NE12G23   29.62F FOG     WCI  20
BELLAIRE       CLOUDY    35  32  89 NE9       29.54F WCI  28
CADILLAC       MIX PCPN  33  32  96 E13       29.46F WCI  24
CHARLEVOIX     FLURRIES  33  31  92 E15       29.59S WCI  23
FRANKFORT      DRIZZLE   34  33  96 NE6       29.50S WCI  29
GAYLORD        FRZ RAIN  33  31  92 E10G25    29.54F FOG     WCI  25
GRAYLING       LGT SNOW  34  33  96 E15G23    29.52F WCI  24
HARBOR SPRINGS LGT SNOW  31  30  94 NE23G29   29.59F WCI  18
HOUGHTON LAKE  CLOUDY    34  32  92 NE14      29.50F FOG     WCI  25
MANISTEE       MIX PCPN  34  33  96 N3        29.49S
OSCODA         CLOUDY    37  36  96 NE10G17   29.57S WCI  29
PELLSTON       CLOUDY    31  27  85 E17G26    29.63F FOG     WCI  19
ROGERS CITY    CLOUDY    32  31  96 E9G16     29.65F FOG     WCI  24
TRAVERSE CITY  CLOUDY    36  34  92 NE8       29.50F FOG     WCI  30
$$
MIZ007>008-015-242200-
EASTERN UPPER MICHIGAN

CITY           SKY/WX    TMP DP  RH WIND       PRES   REMARKS
KINROSS        CLOUDY    29  23  78 E16       29.67F WCI  17
MACKINAC ISLAN CLOUDY    29  27  91 E24G37    29.62F WCI  15
NEWBERRY       CLOUDY    26  25  96 NE10      29.68R FOG     WCI  16
S. S. MARIE    CLOUDY    30  22  72 NE8       29.68F WCI  22
MUNISING         N/A     25  22  88 N20       29.72F WCI  11
$$
MIZ004>006-011>014-085-242200-
CENTRAL UPPER MICHIGAN

CITY           SKY/WX    TMP DP  RH WIND       PRES   REMARKS
MANISTIQUE     LGT SNOW  27  26  98 N13G20    29.64F WCI  16
MENOMINEE      MIX PCPN  27  24  89 MISG        N/A  FOG
SAWYER-GWINN   SNOW      21  19  93 N24       29.70F VSB 1/2 WCI   4
$$
MIZ001>003-009>011-084-242200-
WESTERN UPPER MICHIGAN

CITY           SKY/WX    TMP DP  RH WIND       PRES   REMARKS
IRON MOUNTAIN  FRZ RAIN  24  18  77 N21G26    29.64F WCI   9
HOUGHTON       LGT SNOW  19  12  74 N17       29.79F WCI   4
COPPER HARBOR    N/A     22  17  81 E16       29.83F WCI   8
IRONWOOD       SNOW      20  17  88 N13       29.79F VSB 1/4 WCI   7
$$

ABBREVIATIONS USED IN REMARKS
   TC - TEMPERATURE IN CELSIUS
  WCI - WIND CHILL INDEX
   HX - HEAT INDEX
  VSB - VISIBILITY





USA.gov is the U.S. government's official web portal to all federal, state and local government web resources and services.